User: anonymous   Login
Location: Bishausen
(51.6334°N, 9.9631°E)
Time: 13:36:23
(UTC+00:00)
Language:

RESURS DK-1 - Orbit

View from above orbital plane
View from above orbital plane
View from above satellite
View from above satellite

Ground track
Ground track

The orbit data is extracted from the following two-line orbital elements,

1 29228U 06021A   24202.86271509  .00005315  00000-0  35520-3 0  9992
2 29228  69.9373 335.3635 0006668 298.3870  61.6621 15.07562738997396
Epoch (UTC): 20 July 2024 20:42:18
Eccentricity: 0.0006668
inclination: 69.9373°
perigee height: 539 km
apogee height: 548 km
right ascension of ascending node: 335.3635°
argument of perigee: 298.3870°
revolutions per day: 15.07562738
mean anomaly at epoch: 61.6621°
orbit number at epoch: 99739

The dashed part of the orbit path shows where the satellite is in the earth's shadow,  

DLR